Lexington Weather

Lexington, Massachusetts, USA

53°F
10/17/2021 8:57pm 
  • Lexington Conditions: Clear
  • Temperature: 52.9°F / 11.6°CColder 1.1°F than last hour.
  • Dew Point: 47.5°FDecreased 0.5°Fsince last hour.
  • Relative Humidity: 82%Increased 2.0% since last hour.
  • Wind: Wind from W W 1 mph, 10-min avg: Calm, gust: 4 mph
  • Barometer: 29.67 inRising 0.02  inHg/hr Rising Slowly
  • Visibility: 10 miles
  • Rain Today: 0.35 in
  •   

Regional Weather Roundup
for Boston / Norton, MA

        
000
ASUS41 KBOX 151104
RWRBOX

REGIONAL WEATHER ROUNDUP
NATIONAL WEATHER SERVICE BOSTON/NORTON MA
700 AM EDT FRI OCT 15 2021

NOTE:  "FAIR" INDICATES FEW OR NO CLOUDS BELOW 12,000 FEET WITH NO 
SIGNIFICANT WEATHER AND/OR OBSTRUCTIONS TO VISIBILITY.

MAZALL-151200-
EASTERN MASSACHUSETTS
  
CITY           SKY/WX    TMP DP  RH WIND       PRES   REMARKS
BOSTON         MOCLDY    61  60  97 E7        29.93S                  
BEVERLY        CLOUDY    62  59  90 E3        29.92S                  
LAWRENCE       PTCLDY    61  59  93 E5        29.94F                  
BEDFORD        FOG       57  57 100 CALM      29.92S VSB 1            
BLUE HILL      NOT AVBL                                               
NORWOOD        PTCLDY    53  51  93 CALM      29.92S                  
MARSHFIELD     CLOUDY    57  55  94 CALM      29.93S                  
PLYMOUTH       PTCLDY    54  53  97 E3        29.93R                  
TAUNTON        MOCLDY    52  51  97 CALM      29.92S FOG              
NEW BEDFORD    CLEAR     53  53 100 CALM      29.92R                  
$$

MAZALL-151200-
CAPE COD AND THE ISLANDS
  
CITY           SKY/WX    TMP DP  RH WIND       PRES   REMARKS
FALMOUTH       CLOUDY    57  57 100 NE5       29.93R                  
HYANNIS        FOG       60  60 100 NE3       29.92R VSB 1/2          
CHATHAM        CLOUDY    60  59  96 NE5       29.94R                  
PROVINCETOWN   CLOUDY    59  59 100 CALM      29.94S FOG              
NANTUCKET      FOG       61  60  97 NE6       29.93R VSB 1            
MARTHAS VNYRD  FOG       51  51 100 CALM      29.92S VSB 1/4          
$$
 
MAZALL-151200-
CENTRAL AND WESTERN MASSACHUSETTS
  
CITY           SKY/WX    TMP DP  RH WIND       PRES   REMARKS
WORCESTER      CLEAR     62  57  83 N5        29.94S                  
FITCHBURG      PTCLDY    56  55  97 CALM      29.94R                  
ORANGE         FOG       56  55  97 CALM      29.95S VSB 1/4          
SPRINGFIELD    FOG       53  53 100 CALM      29.93R VSB 5/8          
WESTFIELD      CLOUDY    54  53  97 CALM      29.93S FOG              
NORTH ADAMS    CLOUDY    57  55  93 CALM      29.94S                  
PITTSFIELD     CLOUDY    54  54 100 CALM      29.93F FOG              
$$
 
RIZALL-151200-
RHODE ISLAND
  
CITY           SKY/WX    TMP DP  RH WIND       PRES   REMARKS
PROVIDENCE     PTCLDY    58  57  97 W3        29.92S                  
NEWPORT        NOT AVBL                                               
BLOCK ISLAND   CLEAR     60  58  92 CALM      29.93S                  
SMITHFIELD     FOG       55  55 100 CALM      29.94R VSB 1            
WESTERLY       MOCLDY    55  54  96 CALM      29.93R FOG              
$$
 
CTZALL-151200-
CONNECTICUT
  
CITY           SKY/WX    TMP DP  RH WIND       PRES   REMARKS
BRADLEY INTL   MOCLDY    54  54 100 CALM      29.94R                  
HARTFORD       PTCLDY    57  55  93 CALM      29.93R                  
BRIDGEPORT     MOCLDY    61  58  90 N3        29.92F                  
DANBURY        MOCLDY    56  54  93 CALM      29.95S                  
GROTON         CLEAR     56  56 100 CALM      29.92R FOG              
NEW HAVEN      MOCLDY    60  58  92 CALM      29.93R                  
CHESTER        FAIR      59  59 100 CALM      29.94R                  
MERIDEN        MOCLDY    55  53  93 CALM      29.94R                  
WILLIMANTIC    CLEAR     54  53  97 CALM      29.93S                  
OXFORD         MOCLDY    56  55  97 CALM      29.95S                  
$$

MEZ002-015-021-024-NHZ003-005-008-011-012-014-VTZ005-008-151200-
NORTHERN NEW ENGLAND
  
CITY           SKY/WX    TMP DP  RH WIND       PRES   REMARKS
PORTLAND ME    CLOUDY    58  57  97 SE3       29.94F                  
BANGOR ME      CLOUDY    58  56  93 S5        29.95R                  
CONCORD NH     CLOUDY    56  54  93 CALM      29.93F                  
MANCHESTER NH  FOG       60  58  92 CALM      29.91F VSB 1            
NASHUA NH      PTCLDY    57  57 100 NW3       29.94S FOG              
PORTSMOUTH NH  CLOUDY    61  60  96 E6        29.95S FOG              
JAFFREY NH     PTCLDY    53  51  93 CALM      29.95S                  
KEENE NH       CLOUDY    57  57 100 CALM      29.94S FOG              
BURLINGTON VT  MOCLDY    59  58  96 VRB3      29.88F                  
MT. WASHINGTON FOG       45  45 100 W16         N/A  VSB 1/8          
$$

NYZ052-076-151200-
EASTERN NEW YORK
  
CITY           SKY/WX    TMP DP  RH WIND       PRES   REMARKS
ALBANY         MOCLDY    60  58  92 CALM      29.91F                  
NEW YORK CITY  MOCLDY    67  60  78 CALM      29.92S                  
$$
 
ANZALL-151200-
MARINE OBSERVATIONS
  
STATION/POSITION TIME  TEMP    WIND        PRES    VSBY  WAVE
                       AIR SEA DIR/SP/G                  HT/PER
                 (UTC) (F)     (DEG/KT/KT) (MB)    (MI)  (FT/S)
BOSTON BUOY      1040      63   90/  6/  8 1013.8R
BUZZARDS BAY     1000          340/  1/  1 1014.2R
NANTUCKET SOUND  1040   62 67   50/  6/  8 1013.3R
MASS BAY-STELLWA 1004   62     100/  6/  6 1012.9R  1 7/8  2/11
ISLE OF SHOALS   1000   60      90/  8/  9 1013.2R
S OF BLOCK IS    1026      65                N/A           2/ 8
$$

......................KEY.........................
  SKY/WX - SKY CONDITION/PRESENT WEATHER
  TMP    - TEMPERATURE IN FAHRENHEIT
  DWPT   - DEWPOINT IN FAHRENHEIT
  RH     - RELATIVE HUMIDITY IN PERCENT
  WIND   - DIRECTION AND SPEED IN MPH
  PRES   - MEAN SEA LEVEL PRESSURE IN INCHES OF HG
  WCI    - WIND CHILL INDEX
  VSB    - VISIBILITY IN MILES
  HX     - HEAT INDEX
  TC     - TEMPERATURE IN CELSIUS
  VRB    - VARIABLE WIND DIRECTION
  N/A    - NOT AVAILABLE
  
      

Other recent Regional Weather Roundups

Sun Oct 17, 8:04pm

Sun Oct 17, 7:04pm

Sun Oct 17, 6:04pm

Sun Oct 17, 5:04pm

Sun Oct 17, 4:04pm

Sun Oct 17, 3:04pm

Sun Oct 17, 2:04pm

Sun Oct 17, 1:04pm

Sun Oct 17, 12:04pm

Sun Oct 17, 11:04am

Sun Oct 17, 10:04am

Sun Oct 17, 9:04am

Sun Oct 17, 8:04am

Sun Oct 17, 7:04am

Sun Oct 17, 6:04am

Sun Oct 17, 5:04am

Sun Oct 17, 4:04am

Sun Oct 17, 3:04am

Sun Oct 17, 2:04am

Sun Oct 17, 1:04am

Sun Oct 17, 12:04am

Sat Oct 16, 11:04pm

Sat Oct 16, 10:04pm

Sat Oct 16, 9:04pm

Sat Oct 16, 8:04pm

Sat Oct 16, 7:04pm

Sat Oct 16, 6:04pm

Sat Oct 16, 5:04pm

Sat Oct 16, 4:04pm

Sat Oct 16, 3:04pm

Sat Oct 16, 2:04pm

Sat Oct 16, 1:04pm

Sat Oct 16, 12:04pm

Sat Oct 16, 11:04am

Sat Oct 16, 10:04am

Sat Oct 16, 9:04am

Sat Oct 16, 8:04am

Sat Oct 16, 7:04am

Sat Oct 16, 6:04am

Sat Oct 16, 5:04am

Sat Oct 16, 4:04am

Sat Oct 16, 3:04am

Sat Oct 16, 2:04am

Sat Oct 16, 1:04am

Sat Oct 16, 12:04am

Fri Oct 15, 11:04pm

Fri Oct 15, 10:04pm

Fri Oct 15, 9:04pm

Fri Oct 15, 8:04pm

Fri Oct 15, 7:04pm

Fri Oct 15, 6:04pm

Fri Oct 15, 5:04pm

Fri Oct 15, 4:04pm

Fri Oct 15, 3:04pm

Fri Oct 15, 2:05pm

Fri Oct 15, 1:05pm

Fri Oct 15, 12:04pm

Fri Oct 15, 11:05am

Fri Oct 15, 10:04am

Fri Oct 15, 9:04am

Fri Oct 15, 8:04am

Fri Oct 15, 6:04am

Fri Oct 15, 5:04am

Fri Oct 15, 4:04am

Fri Oct 15, 3:05am

Fri Oct 15, 2:04am

Fri Oct 15, 1:04am

Fri Oct 15, 12:04am

Thu Oct 14, 11:04pm

Thu Oct 14, 10:04pm

Thu Oct 14, 9:04pm

Thu Oct 14, 8:04pm

Thu Oct 14, 7:04pm

Thu Oct 14, 6:04pm

Thu Oct 14, 5:04pm

Thu Oct 14, 4:04pm

Thu Oct 14, 3:04pm

Thu Oct 14, 2:04pm

Thu Oct 14, 1:04pm

Thu Oct 14, 12:04pm

Thu Oct 14, 11:04am

Thu Oct 14, 10:04am

Thu Oct 14, 9:04am

Thu Oct 14, 8:04am

Thu Oct 14, 7:04am

Thu Oct 14, 6:04am

Thu Oct 14, 5:04am

Thu Oct 14, 4:04am

Thu Oct 14, 3:04am

Thu Oct 14, 2:04am

Thu Oct 14, 1:04am

Thu Oct 14, 12:04am

Wed Oct 13, 11:04pm

Wed Oct 13, 10:04pm

Wed Oct 13, 9:04pm

Wed Oct 13, 8:04pm

Wed Oct 13, 7:04pm

Wed Oct 13, 6:04pm

Wed Oct 13, 5:04pm

Wed Oct 13, 4:04pm

Wed Oct 13, 3:04pm

Wed Oct 13, 2:04pm

Wed Oct 13, 1:04pm

Wed Oct 13, 12:04pm

Wed Oct 13, 11:04am

Wed Oct 13, 10:04am

Wed Oct 13, 9:04am

Wed Oct 13, 8:04am

Wed Oct 13, 7:04am

Wed Oct 13, 6:04am

Wed Oct 13, 5:04am

Wed Oct 13, 4:04am

Wed Oct 13, 3:04am

Wed Oct 13, 2:04am

Wed Oct 13, 1:04am

Wed Oct 13, 12:04am

Tue Oct 12, 11:04pm

Tue Oct 12, 10:04pm

Tue Oct 12, 9:04pm

Tue Oct 12, 8:04pm

Tue Oct 12, 7:04pm

Tue Oct 12, 6:04pm

Tue Oct 12, 5:04pm

Tue Oct 12, 4:04pm

Tue Oct 12, 3:04pm

Tue Oct 12, 2:04pm

Tue Oct 12, 1:04pm

Tue Oct 12, 12:04pm

Tue Oct 12, 11:05am

Tue Oct 12, 10:04am

Tue Oct 12, 9:04am

Tue Oct 12, 8:04am

Tue Oct 12, 7:04am

Tue Oct 12, 6:04am

Tue Oct 12, 5:04am

Tue Oct 12, 4:04am

Tue Oct 12, 3:04am

Tue Oct 12, 2:04am

Tue Oct 12, 1:04am

Tue Oct 12, 12:04am

Mon Oct 11, 11:04pm

Mon Oct 11, 10:04pm

Mon Oct 11, 9:04pm

Mon Oct 11, 8:04pm

Mon Oct 11, 7:04pm

Mon Oct 11, 6:04pm

Mon Oct 11, 5:04pm

Mon Oct 11, 4:04pm

Mon Oct 11, 3:04pm

Mon Oct 11, 2:04pm

Mon Oct 11, 1:04pm

Mon Oct 11, 12:04pm

Mon Oct 11, 11:04am

Mon Oct 11, 10:04am

Mon Oct 11, 9:04am

Mon Oct 11, 8:04am

Mon Oct 11, 7:04am

Mon Oct 11, 6:04am

Mon Oct 11, 5:04am

Mon Oct 11, 4:04am

Mon Oct 11, 3:04am

Mon Oct 11, 2:04am

Mon Oct 11, 1:04am

Mon Oct 11, 12:05am

Sun Oct 10, 11:04pm

Sun Oct 10, 10:04pm

Sun Oct 10, 9:04pm

Meta data:

ID: 01e98ccf-0b11-40ef-b210-472691735b0c
Link: https://api.weather.gov/products/01e98ccf-0b11-40ef-b210-472691735b0c